{"data":{"norad_id":66249,"intl_designator":"2025-245R","name":"STARLINK-35304","alt_names":[],"object_type":"PAYLOAD","status":"ACTIVE","operator":null,"country":"US","launch_date":"2025-10-29","launch_site_code":"AFETR","launch_vehicle":null,"mission":null,"orbit_class":"UNKNOWN","rcs_meters":null,"size_class":null,"mass_kg":null,"dimensions":null,"purposes":["comms"],"wikipedia_slug":null,"has_3d_model":false,"image_url":null,"decayed_at":null,"tle_current":{"epoch":"2026-05-24T21:07:56.973792Z","epoch_age_seconds":95938,"freshness":"FRESH","line1":"1 66249U 25245R   26144.88052053  .00017899  00000+0  61479-3 0  9996","line2":"2 66249  53.1588 289.8537 0001111  68.4168 291.6951 15.30211299 32706","mean_motion":15.30211299,"eccentricity":0.0001111,"inclination_deg":53.1588,"raan_deg":289.8537,"arg_perigee_deg":68.4168,"mean_anomaly_deg":291.6951,"bstar":0.00061479,"rev_number":3270,"period_min":94.104650837505,"perigee_km":474.4199291828,"apogee_km":475.94273651636,"semimajor_km":6853.3183328496,"source":"CELESTRAK","updated_at":"2026-05-25T13:38:21.136649Z"}}}